Regional Weather Roundup
Issued by NWS

Home | Current Version | Previous Version | Text Only | Print | Product List | Glossary On
Versions: 1 2 3 4 5 6 7 8 9 10 11 12 13 14 15 16 17 18 19 20 21 22 23 24 25 26 27 28 29 30 31 32 33 34 35 36 37 38 39 40 41 42 43 44 45 46 47 48 49 50
000
ASUS43 KDTX 271910
RWRMI
MICHIGAN HOURLY REGIONAL WEATHER ROUNDUP
NATIONAL WEATHER SERVICE DETROIT/PONTIAC MI
300 PM EDT MON MAR 27 2017

NOTE: "FAIR" INDICATES FEW OR NO CLOUDS BELOW 12,000 FEET WITH NO
SIGNIFICANT WEATHER AND/OR OBSTRUCTION TO VISIBILITY.

MIZ047>049-052>055-059>063-066>070-074>076-081>083-272000-
SOUTHEAST LOWER MICHIGAN

CITY           SKY/WX    TMP DP  RH WIND       PRES   REMARKS
ADRIAN         CLOUDY    58  49  72 SW8       29.92F
ALMA           CLOUDY    50  44  79 W10       29.90F
ANN ARBOR      CLOUDY    59  49  69 SW9       29.90S
BAD AXE        CLOUDY    48  47  99 W9        29.90S
CARO           CLOUDY    50  46  87 SW8       29.89F
DETROIT CITY   CLOUDY    61  49  64 W8        29.88F
DETROIT        CLOUDY    62  49  62 SW7       29.91F
FLINT          CLOUDY    54  47  77 W8        29.89F
GROSSE ILE     CLOUDY    50  46  85 S8        29.90F
HILLSDALE      CLOUDY    55  46  71 SW7       29.91S
HOWELL         CLOUDY    56  49  76 NW3       29.89F

CITY           SKY/WX    TMP DP  RH WIND       PRES   REMARKS
JACKSON        CLOUDY    56  48  74 W8        29.90F
LAMBERTVILLE   CLOUDY    60  49  68 SW7       29.92S
LANSING        PTSUNNY   56  45  66 SW12      29.90F
LAPEER         CLOUDY    53  49  84 W9        29.90F
MASON          CLOUDY    56  49  79 SW5       29.91S
MONROE         CLOUDY    60  52  75 W7        29.90F
MT. CLEMENS    CLOUDY    59  52  77 W7        29.88F
PONTIAC        CLOUDY    56  48  74 W9        29.88F
PORT HOPE        N/A     50  45  83 VRB7      29.87F
PORT HURON     CLOUDY    57  48  72 SW5       29.89F
TRI CITIES     CLOUDY    50  45  83 W12       29.90F
MIDLAND        CLOUDY    49  41  75 SW7       29.89F
TROY           CLOUDY    59  49  68 W5        29.91F
SAGINAW HB     CLOUDY    50  43  76 SW8       29.89F
$$
MIZ043>046-050>051-056>058-064>065-071>073-077>080-272000-
SOUTHWEST LOWER MICHIGAN

CITY           SKY/WX    TMP DP  RH WIND       PRES   REMARKS
BATTLE CREEK   CLOUDY    53  48  83 W7        29.92F
BENTON HARBOR  CLOUDY    46  41  82 N6        29.94F
BIG RAPIDS     CLOUDY    44  39  83 W7        29.91F
COLDWATER      CLOUDY    57  50  79 W3        29.91F
FREMONT        CLOUDY    45  39  82 CALM      29.93S
HOLLAND        CLOUDY    46  39  76 W7        29.94F
GRAND RAPIDS   CLOUDY    50  44  80 W7        29.91F
IONIA          CLOUDY    51  43  73 SW5       29.90F
KALAMAZOO      CLOUDY    53  46  77 SW7       29.93S
LUDINGTON      CLOUDY    40  38  92 NW3       29.93F
MARSHALL       CLOUDY    54  49  85 SW8       29.91F
MOUNT PLEASANT CLOUDY    47  42  84 W7        29.89F
MUSKEGON       CLOUDY    45  39  79 W8        29.94S
SOUTH HAVEN    CLOUDY    44  40  88 NW7       29.94F
$$
MIZ016>042-272000-
NORTHERN LOWER MICHIGAN

CITY           SKY/WX    TMP DP  RH WIND       PRES   REMARKS
ALPENA         CLOUDY    42  40  92 NW6       29.90F
BEAVER ISLAND  CLOUDY    38  36  92 W6        29.94F WCI  33
BELLAIRE       CLOUDY    38  37  92 W5        29.94F WCI  35
CADILLAC       CLOUDY    41  39  91 W3        29.89F
CHARLEVOIX     CLOUDY    37  37 100 W7        29.97S WCI  31
FRANKFORT      CLOUDY    38  35  87 NW7       29.95R WCI  33
GAYLORD        CLOUDY    39  34  82 W8        29.89S WCI  33
GRAYLING       CLOUDY    39  37  93 W7        29.90F WCI  34
HARBOR SPRINGS CLOUDY    35  35  99 SW5       29.93S WCI  31
HOUGHTON LAKE  CLOUDY    41  38  89 W6        29.90S
MANISTEE       CLOUDY    40  36  86 NW9       29.94F WCI  34
OSCODA         MIX PCPN  40  40  97 NE6       29.88F
PELLSTON       CLOUDY    40  34  79 NW7       29.92S
ROGERS CITY    CLOUDY    41  37  85 W3        29.90F
TRAVERSE CITY  CLOUDY    40  36  86 NE6       29.92F
$$
MIZ007>008-015-272000-
EASTERN UPPER MICHIGAN

CITY           SKY/WX    TMP DP  RH WIND       PRES   REMARKS
KINROSS        CLOUDY    38  35  89 NW8       29.91R WCI  32
MACKINAC ISLAN MIX PCPN  35  35 100 SW6       29.92S WCI  29
NEWBERRY       CLOUDY    36  35  96 NW3       29.93R
S. S. MARIE    CLOUDY    39  34  82 W10       29.90R WCI  32
MUNISING         N/A     35  33  92 NW10      29.97R WCI  27
$$
MIZ004>006-011>014-085-272000-
CENTRAL UPPER MICHIGAN

CITY           SKY/WX    TMP DP  RH WIND       PRES   REMARKS
MANISTIQUE     CLOUDY    37  37 100 NW7       29.95R WCI  32
ESCANABA       CLOUDY    40  35  83 N6        29.96S
MENOMINEE        N/A    N/A N/A N/A MISG        N/A
SAWYER-GWINN   CLOUDY    36  34  93 N5        29.96R WCI  32
$$
MIZ001>003-009>011-084-272000-
WESTERN UPPER MICHIGAN

CITY           SKY/WX    TMP DP  RH WIND       PRES   REMARKS
IRON MOUNTAIN  CLOUDY    41  34  76 NW7       29.94S
HOUGHTON       CLOUDY    37  32  82 W12       29.96S WCI  29
COPPER HARBOR    N/A     35  33  92 N16       29.96S WCI  25
IRONWOOD       CLOUDY    45  36  70 NW5       29.97S
$$

ABBREVIATIONS USED IN REMARKS
   TC - TEMPERATURE IN CELSIUS
  WCI - WIND CHILL INDEX
   HX - HEAT INDEX
  VSB - VISIBILITY





USA.gov is the U.S. government's official web portal to all federal, state and local government web resources and services.